When you browse on this site, cookies collect data to enhance your experience and personalize the content and advertising you see.
Visit our Privacy Policy to learn more. By continuing to use the site, you agree to this use of cookies and data.
  • En España
  • Lista de países
  • Para 7 días
  • Temperatura del agua
  • Mapa Satelital
  • El tiempo en el mapa
  • Informadores
  • user-avatar
    Iniciar sesión

    Tiempo cada hora Kruhlyk

    Hoy, 24 Mayo, Viernes

    Tiempo Temperatura Precipitaciones Viento Presión Humedad
    00:00 +15°C° 0 mm 2 mps 743 mmHg 86%
    01:00 +15°C° 0 mm 1 mps 742 mmHg 88%
    02:00 +15°C° 0 mm 1 mps 742 mmHg 90%
    03:00 +15°C° 0 mm 2 mps 742 mmHg 90%
    04:00 +15°C° 0 mm 2 mps 743 mmHg 90%
    05:00 +15°C° 0 mm 2 mps 743 mmHg 91%
    06:00 +17°C° 0 mm 2 mps 743 mmHg 84%
    07:00 +19°C° 0 mm 2 mps 743 mmHg 78%
    08:00 +21°C° 0 mm 2 mps 743 mmHg 72%
    09:00 +23°C° 0.1 mm 2 mps 743 mmHg 67%
    10:00 +24°C° 0.1 mm 2 mps 743 mmHg 62%
    11:00 +26°C° 0.1 mm 2 mps 743 mmHg 57%
    12:00 +26°C° 0.1 mm 2 mps 743 mmHg 55%
    13:00 +26°C° 0.1 mm 2 mps 743 mmHg 54%
    14:00 +27°C° 0.1 mm 2 mps 743 mmHg 52%
    15:00 +27°C° 0 mm 1 mps 743 mmHg 53%
    16:00 +26°C° 0 mm 1 mps 743 mmHg 55%
    17:00 +26°C° 0 mm 1 mps 743 mmHg 56%
    18:00 +24°C° 0.7 mm 1 mps 742 mmHg 63%
    19:00 +20°C° 0.7 mm 0 mps 742 mmHg 69%
    20:00 +18°C° 0.7 mm 0 mps 742 mmHg 75%
    21:00 +19°C° 0.9 mm 1 mps 742 mmHg 79%
    22:00 +18°C° 0.9 mm 2 mps 742 mmHg 83%
    23:00 +17°C° 0.9 mm 3 mps 742 mmHg 87%

    Mañana, 25 Mayo, Sábado

    Tiempo Temperatura Precipitaciones Viento Presión Humedad
    00:00 +17°C° 0.2 mm 2 mps 742 mmHg 86%
    01:00 +17°C° 0.2 mm 2 mps 742 mmHg 86%
    02:00 +18°C° 0.2 mm 1 mps 742 mmHg 85%
    03:00 +18°C° 0.2 mm 1 mps 742 mmHg 84%
    04:00 +18°C° 0.2 mm 1 mps 742 mmHg 83%
    05:00 +18°C° 0.2 mm 1 mps 742 mmHg 83%
    06:00 +19°C° 0.2 mm 1 mps 742 mmHg 81%
    07:00 +19°C° 0.2 mm 2 mps 741 mmHg 79%
    08:00 +20°C° 0.2 mm 2 mps 741 mmHg 78%
    09:00 +21°C° 0.6 mm 2 mps 741 mmHg 74%
    10:00 +23°C° 0.6 mm 2 mps 741 mmHg 69%
    11:00 +23°C° 0.6 mm 2 mps 741 mmHg 65%
    12:00 +24°C° 0.9 mm 2 mps 741 mmHg 64%
    13:00 +24°C° 0.9 mm 2 mps 741 mmHg 62%
    14:00 +24°C° 0.9 mm 1 mps 740 mmHg 61%
    15:00 +24°C° 0.4 mm 1 mps 740 mmHg 62%
    16:00 +24°C° 0.4 mm 1 mps 740 mmHg 64%
    17:00 +24°C° 0.4 mm 1 mps 740 mmHg 66%
    18:00 +22°C° 0.7 mm 1 mps 740 mmHg 71%
    19:00 +21°C° 0.7 mm 1 mps 740 mmHg 77%
    20:00 +19°C° 0.7 mm 1 mps 740 mmHg 82%
    21:00 +19°C° 0 mm 1 mps 740 mmHg 83%
    22:00 +19°C° 0 mm 1 mps 740 mmHg 84%
    23:00 +18°C° 0 mm 1 mps 740 mmHg 85%

    Pasado mañana, 26 Mayo, Domingo

    Tiempo Temperatura Precipitaciones Viento Presión Humedad
    00:00 +18°C° 0 mm 1 mps 740 mmHg 86%
    01:00 +16°C° 0 mm 2 mps 740 mmHg 88%
    02:00 +16°C° 0 mm 2 mps 740 mmHg 90%
    03:00 +16°C° 0 mm 2 mps 740 mmHg 91%
    04:00 +16°C° 0 mm 2 mps 740 mmHg 92%
    05:00 +16°C° 0 mm 3 mps 740 mmHg 93%
    06:00 +17°C° 0 mm 3 mps 741 mmHg 90%
    07:00 +18°C° 0 mm 4 mps 741 mmHg 86%
    08:00 +20°C° 0 mm 5 mps 741 mmHg 82%
    09:00 +21°C° 0 mm 5 mps 742 mmHg 77%
    10:00 +22°C° 0 mm 5 mps 742 mmHg 72%
    11:00 +23°C° 0 mm 6 mps 742 mmHg 67%
    12:00 +23°C° 0 mm 6 mps 742 mmHg 64%
    13:00 +23°C° 0 mm 5 mps 742 mmHg 61%
    14:00 +25°C° 0 mm 5 mps 743 mmHg 58%
    15:00 +23°C° 0.2 mm 5 mps 743 mmHg 62%
    16:00 +23°C° 0.2 mm 5 mps 743 mmHg 66%
    17:00 +22°C° 0.2 mm 4 mps 743 mmHg 70%
    18:00 +20°C° 0.1 mm 4 mps 743 mmHg 75%
    19:00 +19°C° 0.1 mm 3 mps 744 mmHg 81%
    20:00 +17°C° 0.1 mm 2 mps 744 mmHg 86%
    21:00 +16°C° 0 mm 2 mps 744 mmHg 87%
    22:00 +16°C° 0 mm 2 mps 745 mmHg 88%
    23:00 +15°C° 0 mm 2 mps 745 mmHg 89%

    27 Mayo, Lunes

    Tiempo Temperatura Precipitaciones Viento Presión Humedad
    00:00 +15°C° 0 mm 2 mps 745 mmHg 90%
    01:00 +14°C° 0 mm 2 mps 746 mmHg 91%
    02:00 +14°C° 0 mm 2 mps 746 mmHg 92%
    03:00 +14°C° 0 mm 2 mps 746 mmHg 91%
    04:00 +14°C° 0 mm 2 mps 746 mmHg 91%
    05:00 +14°C° 0 mm 2 mps 747 mmHg 90%
    06:00 +16°C° 0 mm 2 mps 747 mmHg 83%
    07:00 +18°C° 0 mm 2 mps 747 mmHg 77%
    08:00 +20°C° 0 mm 3 mps 747 mmHg 70%
    09:00 +21°C° 0 mm 3 mps 748 mmHg 67%
    10:00 +22°C° 0 mm 3 mps 748 mmHg 63%
    11:00 +23°C° 0 mm 4 mps 748 mmHg 59%
    12:00 +25°C° 0.6 mm 4 mps 748 mmHg 62%
    13:00 +25°C° 0.6 mm 5 mps 748 mmHg 65%
    14:00 +25°C° 0.6 mm 5 mps 748 mmHg 68%
    15:00 +25°C° 0.4 mm 5 mps 748 mmHg 69%
    16:00 +25°C° 0.4 mm 4 mps 748 mmHg 70%
    17:00 +25°C° 0.4 mm 3 mps 748 mmHg 71%
    18:00 +22°C° 0.1 mm 3 mps 748 mmHg 76%
    19:00 +21°C° 0.1 mm 2 mps 748 mmHg 81%
    20:00 +19°C° 0.1 mm 2 mps 748 mmHg 86%
    21:00 +19°C° 0 mm 2 mps 748 mmHg 86%
    22:00 +19°C° 0 mm 2 mps 749 mmHg 87%
    23:00 +18°C° 0 mm 3 mps 749 mmHg 87%

    28 Mayo, Martes

    Tiempo Temperatura Precipitaciones Viento Presión Humedad
    00:00 +18°C° 0 mm 3 mps 749 mmHg 87%
    01:00 +17°C° 0 mm 3 mps 749 mmHg 88%
    02:00 +17°C° 0 mm 3 mps 749 mmHg 88%
    03:00 +17°C° 0 mm 3 mps 749 mmHg 88%
    04:00 +17°C° 0 mm 3 mps 749 mmHg 88%
    05:00 +17°C° 0 mm 3 mps 749 mmHg 88%
    06:00 +19°C° 0 mm 3 mps 749 mmHg 83%
    07:00 +21°C° 0 mm 3 mps 750 mmHg 78%
    08:00 +22°C° 0 mm 3 mps 750 mmHg 72%
    09:00 +25°C° 0 mm 4 mps 750 mmHg 67%
    10:00 +26°C° 0 mm 5 mps 750 mmHg 61%
    11:00 +27°C° 0 mm 6 mps 750 mmHg 55%
    12:00 +27°C° 0 mm 6 mps 749 mmHg 56%
    13:00 +28°C° 0 mm 6 mps 749 mmHg 56%
    14:00 +28°C° 0 mm 6 mps 749 mmHg 56%
    15:00 +28°C° 0 mm 5 mps 749 mmHg 60%
    16:00 +28°C° 0 mm 4 mps 748 mmHg 63%
    17:00 +27°C° 0 mm 4 mps 748 mmHg 67%
    18:00 +26°C° 0 mm 4 mps 748 mmHg 70%
    19:00 +23°C° 0 mm 4 mps 748 mmHg 73%
    20:00 +21°C° 0 mm 4 mps 748 mmHg 76%
    21:00 +20°C° 0 mm 4 mps 748 mmHg 76%
    22:00 +20°C° 0 mm 4 mps 748 mmHg 76%
    23:00 +19°C° 0 mm 4 mps 748 mmHg 75%

    29 Mayo, Miércoles

    Tiempo Temperatura Precipitaciones Viento Presión Humedad
    00:00 +18°C° 0 mm 4 mps 748 mmHg 77%
    01:00 +17°C° 0 mm 4 mps 748 mmHg 79%
    02:00 +17°C° 0 mm 4 mps 748 mmHg 81%
    03:00 +16°C° 0 mm 5 mps 748 mmHg 83%
    04:00 +16°C° 0 mm 5 mps 748 mmHg 86%
    05:00 +17°C° 0 mm 5 mps 748 mmHg 88%
    06:00 +19°C° 0 mm 6 mps 748 mmHg 83%
    07:00 +21°C° 0 mm 6 mps 748 mmHg 78%
    08:00 +23°C° 0 mm 7 mps 748 mmHg 73%
    09:00 +24°C° 0 mm 7 mps 748 mmHg 69%
    10:00 +26°C° 0 mm 7 mps 748 mmHg 65%
    11:00 +27°C° 0 mm 7 mps 748 mmHg 61%
    12:00 +28°C° 0 mm 7 mps 747 mmHg 59%
    13:00 +28°C° 0 mm 7 mps 747 mmHg 57%
    14:00 +29°C° 0 mm 7 mps 747 mmHg 55%
    15:00 +29°C° 0 mm 6 mps 747 mmHg 60%
    16:00 +28°C° 0 mm 5 mps 747 mmHg 64%
    17:00 +28°C° 0 mm 4 mps 746 mmHg 69%
    18:00 +26°C° 0 mm 4 mps 746 mmHg 70%
    19:00 +25°C° 0 mm 4 mps 746 mmHg 71%
    20:00 +23°C° 0 mm 5 mps 746 mmHg 72%
    21:00 +22°C° 0 mm 4 mps 747 mmHg 73%
    22:00 +21°C° 0 mm 4 mps 747 mmHg 75%
    23:00 +21°C° 0 mm 4 mps 747 mmHg 76%
    Mostrar más